Theta_e
338 347 355 355 353 353 355 353 354 354 354 354 353 353 352 349 348 348 347 346 346 347 348 347 346 346 347 348 349 349 348 349 349 348 348 348 348 348 348 347 347 343 346
340 346 354 356 354 352 353 353 354 354 355 353 354 353 352 348 347 346 347 346 346 348 349 349 348 347 348 349 348 347 346 346 345 343 344 344 346 347 348 346 346 342 344
339 344 348 354 355 354 354 354 355 355 354 354 354 353 351 349 347 347 346 346 347 347 348 350 350 347 349 349 348 345 342 343 343 341 339 333 336 344 344 344 345 343 341
337 342 347 353 353 353 352 354 354 355 354 353 353 352 352 351 349 348 347 347 348 349 350 350 350 349 348 348 347 345 342 340 342 341 331 331 333 339 341 341 341 341 340
333 340 346 352 352 350 353 353 353 352 353 354 353 354 353 352 351 350 348 348 348 349 349 349 350 349 347 346 344 345 343 340 339 334 327 327 329 335 337 337 338 338 338
322 331 343 348 350 350 353 352 352 352 352 353 352 352 353 352 352 352 351 351 349 349 349 351 350 349 348 346 343 344 343 340 336 324 325 328 331 337 337 339 339 338 337
313 316 324 341 346 350 350 348 349 351 352 353 352 351 351 351 351 350 351 351 350 348 349 350 349 348 346 345 345 344 343 340 326 325 325 329 330 341 340 339 337 337 337
312 312 313 323 329 339 345 349 349 348 351 351 352 351 351 351 351 351 350 350 350 349 349 349 350 348 346 344 344 344 343 338 329 325 324 329 334 343 341 340 338 338 337
309 308 306 310 316 326 335 342 346 347 349 349 349 349 349 349 350 350 351 351 350 350 350 350 350 349 348 346 345 344 341 337 325 324 326 327 336 344 342 340 338 338 337
304 303 303 305 308 311 317 334 339 343 345 347 347 345 343 343 345 348 347 347 350 350 350 349 350 349 347 346 345 343 339 337 328 324 323 327 337 344 343 341 339 338 338
303 302 303 304 305 307 311 323 327 336 339 341 341 340 339 339 340 340 340 341 345 347 349 349 349 348 344 342 342 341 338 332 328 325 323 329 337 343 344 342 341 339 339
299 302 305 305 305 305 309 309 315 324 331 336 339 339 337 337 337 339 336 337 341 344 345 348 348 346 342 338 337 339 336 332 330 329 327 332 335 341 345 344 342 340 339
301 307 309 308 307 306 306 308 307 313 321 329 335 337 337 335 333 333 332 333 335 334 338 341 341 342 337 336 334 334 334 332 330 330 332 335 337 338 343 346 343 341 340
307 309 310 311 311 310 308 307 305 308 314 320 328 335 334 333 333 331 332 333 332 334 335 336 338 338 337 336 334 333 332 332 332 331 329 333 337 338 341 345 346 343 341
306 308 308 310 310 311 311 309 308 307 309 313 321 329 334 331 330 331 332 332 333 333 334 334 335 335 334 334 334 333 332 332 332 332 331 329 333 337 339 342 346 344 343
305 306 307 309 310 311 310 310 311 308 309 312 318 322 327 329 330 329 330 330 332 334 334 336 333 333 333 333 333 334 334 333 332 332 331 330 330 334 338 339 343 345 343
304 305 305 308 309 309 309 309 312 312 310 309 313 318 321 326 327 329 328 327 329 330 331 331 330 329 330 331 332 333 332 332 331 331 332 331 328 328 332 337 342 344 345
302 303 304 307 307 308 308 309 311 311 310 309 311 315 318 322 326 326 327 326 327 326 326 326 325 324 326 325 327 327 329 330 331 329 329 330 330 329 330 334 338 341 343
301 302 303 305 306 305 307 308 308 309 311 311 311 314 318 321 324 326 327 327 325 326 323 322 322 323 321 322 322 323 323 324 326 329 328 328 327 327 327 329 331 334 337
301 302 303 305 304 305 308 309 309 310 311 314 313 318 320 320 322 323 325 326 325 324 323 321 319 320 321 321 322 322 321 322 323 324 326 328 328 327 325 325 327 329 331
300 301 302 302 302 303 305 306 308 308 310 315 316 314 314 315 317 318 320 321 322 321 322 322 320 317 317 320 317 316 317 320 321 323 324 325 326 326 326 325 324 326 327
298 299 300 300 300 301 303 305 308 310 313 313 314 312 310 311 312 313 315 315 316 317 315 315 313 317 319 320 315 314 308 310 314 319 321 323 324 326 326 324 322 323 325
296 296 299 299 299 299 300 304 305 309 310 308 308 309 307 307 309 310 310 311 313 312 311 310 310 309 310 314 314 314 309 303 310 312 315 320 321 323 325 325 326 323 321
296 297 297 297 298 298 298 299 301 303 302 303 303 303 304 303 303 305 306 307 307 308 308 308 308 307 308 305 309 310 308 309 306 304 311 313 317 318 321 324 325 326 325
296 296 296 296 296 298 298 297 297 297 300 302 302 301 302 301 300 301 303 304 303 304 305 305 304 304 304 304 303 304 305 305 306 302 302 303 307 312 318 321 323 325 325
297 295 295 294 294 294 297 297 296 296 296 296 295 295 296 297 298 297 298 299 300 302 302 301 300 300 300 301 300 301 300 301 300 300 299 299 300 305 306 309 320 322 324
Wind_Speed
5 9 7 2 3 3 5 2 3 3 6 7 7 7 7 7 7 7 7 7 6 6 6 7 7 7 6 7 10 11 10 10 11 10 10 10 11 9 11 11 11 6 11
6 8 9 2 3 1 2 2 4 4 4 4 6 5 5 7 6 6 5 4 4 4 6 8 8 7 7 8 10 10 9 9 9 9 8 8 8 10 11 10 10 8 8
7 8 7 4 3 2 2 2 4 5 5 5 4 4 3 5 6 5 5 5 4 4 5 6 8 9 8 9 8 9 8 8 7 7 6 3 3 7 7 7 7 7 6
7 8 8 4 4 3 1 0 3 4 5 5 4 4 4 5 5 5 5 4 4 4 8 5 8 10 9 9 7 5 7 7 7 6 3 2 1 5 6 6 5 5 5
7 8 13 8 3 3 2 1 1 3 4 5 5 4 5 5 6 6 6 5 5 5 6 7 9 10 9 7 7 6 5 5 5 2 2 2 1 4 5 5 6 5 6
8 10 12 17 8 3 1 1 2 3 3 4 5 6 6 6 6 7 6 5 5 5 6 9 9 9 8 7 7 7 5 4 4 1 3 6 4 5 5 6 6 6 6
7 8 9 17 16 13 6 4 4 4 5 5 5 5 5 6 7 7 6 6 6 6 6 6 9 10 9 8 9 8 7 4 3 1 3 4 5 8 6 5 5 5 6
6 7 7 12 15 15 15 12 8 7 6 6 6 7 8 7 8 7 6 7 8 8 9 10 10 11 11 11 10 9 7 6 3 3 3 4 8 9 8 8 7 6 5
6 7 7 7 9 11 12 13 13 12 9 8 8 8 8 8 8 8 8 8 9 10 10 10 11 12 12 12 10 9 8 7 4 3 3 4 9 12 9 9 8 8 8
7 7 7 7 7 7 8 11 12 12 12 10 9 8 7 7 8 8 9 9 11 10 10 10 12 12 12 11 10 9 9 8 4 4 3 3 11 13 11 10 10 10 10
6 8 8 8 8 7 6 7 10 11 12 9 7 8 7 4 5 6 7 9 9 11 11 11 12 13 12 11 11 10 9 3 4 3 3 8 11 14 14 12 12 12 12
8 8 7 8 8 8 7 7 7 6 5 6 5 5 4 5 4 5 6 10 11 11 11 12 13 13 10 4 4 8 3 4 4 4 3 11 12 15 17 14 14 13 13
4 5 8 8 7 7 7 5 3 4 4 4 6 5 4 4 4 4 3 3 4 6 5 6 6 5 5 4 4 4 4 4 3 3 5 12 14 15 18 17 16 15 15
6 6 9 9 7 7 5 4 5 4 4 4 5 6 3 3 4 4 3 4 4 4 6 6 5 7 7 7 8 7 6 5 3 4 5 12 15 17 18 19 17 18 17
8 8 9 9 8 9 7 5 5 6 4 5 5 6 4 4 4 4 5 4 4 4 5 6 6 6 6 7 7 8 8 9 8 5 4 10 14 17 19 21 19 21 20
7 9 9 8 7 8 8 8 6 5 6 5 5 5 6 4 5 5 5 6 6 5 5 5 5 6 7 6 7 8 9 8 8 8 6 6 12 16 18 21 23 22 22
6 7 10 10 10 10 10 9 7 6 7 6 6 7 7 6 5 7 6 5 6 6 7 5 4 1 4 4 6 4 6 8 7 8 8 7 6 12 17 21 22 23 23
6 7 7 9 9 11 11 9 8 8 7 6 6 5 7 7 6 6 5 6 5 4 4 3 3 3 5 5 4 4 4 4 6 7 7 6 7 7 11 19 22 23 24
6 7 6 8 8 12 10 7 8 10 7 7 7 5 6 7 7 6 5 6 4 3 3 3 3 3 4 4 4 4 4 4 6 5 8 8 10 10 8 12 18 21 22
6 6 6 6 8 9 9 7 8 8 6 7 6 7 10 7 8 7 4 4 3 2 3 3 4 3 4 3 3 4 4 4 4 6 8 8 8 10 10 11 9 10 21
5 6 6 7 6 6 5 6 5 7 7 7 7 12 11 8 8 8 6 6 5 3 3 3 2 3 2 2 2 3 4 5 7 7 6 6 8 9 10 10 9 8 9
4 5 5 6 6 5 5 5 3 5 3 5 6 8 11 10 10 8 8 6 8 4 7 8 7 4 3 1 1 2 4 4 3 4 4 6 9 7 8 10 11 12 11
5 5 5 6 6 5 7 5 3 4 3 4 6 7 10 12 12 11 10 8 7 5 6 5 6 6 3 5 10 3 2 3 7 3 5 5 7 6 8 10 11 12 13
5 5 5 6 7 6 7 5 6 5 5 4 5 5 6 10 11 11 11 9 8 7 7 5 6 5 3 4 3 7 5 5 5 8 2 5 6 9 11 10 10 12 12
3 5 6 6 6 6 7 6 5 5 4 4 4 6 7 7 9 10 10 9 8 6 6 8 7 7 7 4 4 4 3 5 2 4 7 5 7 8 9 9 11 10 12
3 4 4 5 4 6 5 6 5 5 5 5 5 5 5 4 5 8 8 7 7 7 7 7 8 8 7 3 4 5 4 4 5 4 5 10 7 5 12 11 10 10 11
Wind_Direction
327 337 356 207 161 135 110 101 151 140 143 134 122 122 120 118 122 131 131 140 143 148 149 140 136 142 136 142 132 121 115 105 101 97 86 81 82 89 96 100 99 89 85
301 340 2 37 124 122 92 57 170 157 166 177 142 150 154 133 134 142 146 151 165 176 167 166 156 142 129 144 138 127 127 122 114 102 90 81 78 85 92 99 104 102 97
347 342 350 336 136 143 139 121 170 174 180 196 160 167 186 154 154 157 168 177 196 208 237 218 167 146 138 130 133 129 128 131 123 111 103 89 97 105 100 98 95 103 105
345 349 338 248 157 164 196 44 190 181 191 199 202 204 207 193 181 189 193 207 225 261 270 243 167 155 154 146 149 147 138 142 140 128 98 125 166 136 131 128 125 123 125
359 356 2 53 104 155 192 206 258 224 210 209 212 219 221 219 218 210 217 227 244 278 287 220 187 165 166 168 174 179 173 159 161 173 249 226 222 169 147 146 140 139 131
2 7 11 15 11 348 304 269 276 268 258 248 248 236 227 231 226 229 223 223 234 266 294 195 189 175 177 183 198 206 209 182 148 212 213 209 201 204 162 157 153 162 156
6 8 12 16 14 7 333 278 263 267 269 268 262 254 241 243 251 247 233 223 226 239 242 212 196 193 199 198 212 218 227 202 158 201 197 201 199 208 177 181 186 182 177
22 7 9 8 8 9 5 356 326 289 281 268 258 253 249 252 260 264 257 239 234 238 237 232 214 206 207 212 218 223 223 215 182 218 219 213 224 223 199 194 194 196 199
22 15 360 357 356 360 358 354 353 335 301 275 272 266 260 253 253 254 246 237 242 242 244 242 231 220 214 223 227 223 223 224 183 223 252 220 232 234 212 205 208 210 209
8 8 356 351 354 352 341 344 353 344 326 302 286 277 274 269 267 264 263 250 236 236 237 237 231 225 222 222 227 225 227 228 208 226 238 232 231 239 227 218 216 217 218
2 8 359 353 344 344 336 341 345 338 337 326 313 301 291 269 265 268 258 259 259 250 239 237 233 230 225 216 219 220 225 227 231 226 230 242 242 239 243 223 223 224 225
5 355 4 359 350 345 337 343 334 331 326 324 316 296 285 276 262 259 258 259 254 252 249 245 239 232 222 204 217 224 221 218 225 224 224 243 245 242 246 231 227 230 231
355 11 359 358 355 4 350 334 328 328 320 318 317 314 300 290 282 268 254 259 252 243 242 239 242 236 202 191 204 209 222 228 229 238 238 238 241 244 241 240 224 231 233
10 1 353 355 358 352 342 342 324 328 320 313 307 308 297 285 282 273 263 252 243 237 230 225 217 214 209 203 198 202 215 225 229 239 238 242 248 247 246 243 230 226 232
15 354 350 344 357 350 343 331 331 326 315 299 302 294 290 280 277 281 273 267 259 251 240 226 217 214 219 213 211 216 216 220 220 228 232 236 241 243 248 250 246 236 231
2 357 346 346 354 344 343 333 322 314 310 307 295 287 281 269 272 269 274 266 259 249 252 241 210 213 221 208 209 212 226 229 225 226 233 241 238 244 244 245 250 245 238
354 347 353 347 348 346 339 334 327 318 320 307 295 293 290 278 258 272 269 268 267 255 255 262 247 259 256 213 221 221 228 234 234 234 236 237 240 238 243 251 245 243 239
355 355 340 346 340 350 337 326 330 323 317 305 296 288 289 286 278 270 267 260 263 272 268 256 242 216 243 233 230 222 226 217 230 229 235 233 235 241 240 241 241 238 240
352 343 348 350 357 343 331 329 327 317 315 318 313 297 289 301 303 280 276 274 256 239 256 275 277 230 209 240 238 250 242 227 226 231 235 235 235 238 240 239 235 234 228
353 341 343 352 2 338 348 345 341 329 334 329 342 10 11 6 8 355 316 310 300 264 255 246 244 261 251 248 257 260 254 246 236 228 234 237 241 241 240 243 243 236 232
358 350 352 355 342 331 343 340 339 346 338 359 16 20 10 1 12 23 10 13 2 342 0 331 353 265 286 303 302 311 268 246 242 237 236 239 240 241 244 241 238 239 238
346 343 348 341 339 349 347 329 327 337 347 357 13 26 11 6 12 30 18 21 16 31 44 8 32 336 282 18 11 250 303 319 278 269 268 253 250 255 254 246 245 244 242
356 351 342 334 341 357 345 322 307 17 29 7 14 16 18 11 14 15 22 20 24 27 65 55 4 41 53 350 356 313 304 262 328 236 242 238 244 242 247 252 249 244 242
338 352 347 355 3 4 345 352 24 43 35 10 17 26 20 19 19 18 18 26 26 16 23 43 34 18 70 50 340 8 347 324 300 305 296 315 304 272 259 253 246 245 245
346 358 358 358 7 356 5 16 25 33 33 11 12 20 15 24 30 24 17 20 26 22 18 31 28 19 39 26 14 354 337 308 18 306 306 333 313 312 314 276 259 253 243
26 10 357 16 10 3 -0 17 30 33 33 40 27 26 14 19 19 17 20 20 15 16 15 21 28 17 26 18 28 17 340 320 350 320 305 315 304 311 303 293 268 252 249